GFSCGP_850_spd_000.txt.gz
Wind_Speed
25 11 16 26 23 14 8 6 9 20 24 5 12 15 23 18 18 20 28 32 33 24 26 32 37 34 29 22 15 13 8 5 5 3 6 10 15 15 14 9 10 10 8 8
8 24 23 16 15 12 12 14 18 21 23 7 17 18 21 9 7 21 30 34 33 19 22 29 37 34 28 20 15 12 8 5 4 2 6 11 14 12 14 8 7 9 10 6
22 8 18 16 14 13 16 17 17 18 20 16 10 15 9 5 6 14 23 27 20 23 31 37 36 32 26 18 15 12 8 5 2 4 5 9 8 11 12 7 6 8 6 3
18 21 16 22 18 17 19 16 19 15 12 8 6 7 5 6 6 5 14 15 19 28 34 38 37 32 25 17 14 11 9 5 6 3 3 7 10 13 12 5 6 2 1 6
16 20 25 21 24 21 18 18 18 20 14 9 22 4 8 6 6 9 10 11 19 31 35 41 37 31 20 16 16 12 9 5 6 5 4 8 11 9 7 3 3 2 3 5
26 9 20 23 18 22 23 10 12 12 8 11 15 7 15 5 8 5 2 17 31 34 36 36 33 25 20 16 15 13 10 5 3 5 3 8 7 8 7 4 3 4 5 8
14 24 17 15 21 19 13 10 4 3 3 11 9 6 10 6 8 8 9 20 26 31 33 34 32 27 21 20 17 14 9 7 5 6 5 6 6 7 7 6 5 4 5 10
17 12 26 20 20 18 19 14 8 7 6 4 6 5 10 9 6 13 19 26 28 30 31 31 31 25 21 20 17 12 8 7 10 9 4 2 6 4 6 8 10 2 5 12
16 15 9 21 18 19 14 15 21 4 3 2 4 7 9 7 6 6 16 25 30 32 32 33 29 24 21 19 16 11 10 9 11 9 4 2 6 6 6 8 9 5 9 11
5 4 15 16 15 24 25 6 7 2 10 6 4 4 5 1 7 6 8 16 28 30 32 31 29 25 19 17 14 12 10 11 10 5 5 4 3 7 6 6 7 8 8 9
9 3 5 15 21 27 10 10 6 5 6 8 3 7 8 13 11 16 13 26 33 35 35 33 30 24 18 18 16 15 12 13 11 6 7 4 0 4 5 6 6 6 7 9
24 5 11 21 4 16 15 15 10 8 5 2 6 9 4 11 15 17 16 28 34 36 36 32 29 25 22 22 18 17 15 12 10 9 9 6 3 2 4 7 5 4 7 11
10 15 6 7 2 7 15 14 8 5 5 8 7 7 3 5 12 19 22 25 33 35 36 33 31 27 25 24 18 14 17 14 12 9 12 8 4 3 5 7 6 7 9 12
12 6 26 14 12 5 6 18 13 8 5 6 8 5 4 2 14 9 19 31 37 39 38 38 33 29 27 23 17 14 18 16 13 11 13 10 4 8 8 8 9 11 13 14
10 12 20 29 16 3 6 17 17 16 12 11 7 10 8 10 16 19 30 30 31 36 40 39 36 31 27 24 19 17 18 18 15 14 12 11 11 13 8 13 13 16 18 15
9 6 11 22 28 26 16 13 22 15 8 8 12 8 8 18 17 16 25 29 31 36 40 40 36 32 29 27 23 20 19 19 18 16 11 15 15 11 10 12 12 16 17 13
5 5 6 20 16 18 17 19 17 17 14 12 10 7 8 7 15 20 25 34 36 39 41 41 38 35 29 28 24 23 20 21 21 16 13 18 16 15 15 11 10 12 12 10
9 4 3 6 8 8 7 11 15 22 17 10 5 10 12 13 28 35 44 41 39 40 42 41 39 36 29 27 26 22 22 24 23 18 15 19 19 18 15 15 12 11 8 6
17 7 5 4 10 4 3 5 10 8 6 9 16 11 11 17 19 14 41 45 41 39 41 41 38 36 31 29 27 26 27 26 25 22 18 18 23 22 19 15 14 11 12 4
14 15 3 4 7 6 2 8 10 8 12 10 12 12 10 14 7 5 39 45 42 39 39 42 40 38 33 31 31 30 30 30 29 23 19 17 25 23 21 19 15 15 13 7
6 3 11 5 4 3 15 22 1 11 5 18 20 19 14 9 13 26 47 47 44 42 40 40 41 40 36 34 35 33 32 32 27 21 20 21 18 23 23 21 18 15 15 12
4 5 3 4 1 4 28 8 8 9 24 28 16 32 32 35 27 33 48 49 46 46 43 42 42 41 39 36 37 36 35 30 26 21 23 25 21 23 20 21 19 15 14 18
3 4 4 4 1 6 10 9 11 19 20 30 31 16 33 29 30 32 37 48 48 46 47 44 43 43 42 40 38 37 33 31 28 26 25 27 25 24 25 22 21 18 14 21
3 7 3 8 2 16 15 18 26 30 31 33 39 25 20 34 32 27 25 31 46 46 48 46 44 43 43 43 40 32 32 31 31 28 27 26 29 28 25 23 21 20 19 16
2 4 6 6 9 22 2 27 33 41 39 45 45 38 15 10 28 27 26 33 42 49 49 46 43 43 44 41 41 37 33 34 35 31 30 29 32 29 28 25 23 21 18 17
6 3 2 4 16 10 20 28 35 39 43 43 43 43 28 19 16 28 31 34 44 49 47 45 42 43 42 41 40 37 35 37 35 36 34 33 36 32 30 28 26 23 16 14

GFSCGP_850_spd_003.txt.gz
Wind_Speed
18 8 19 22 19 13 13 10 16 16 5 7 9 9 17 23 18 21 28 34 36 41 38 35 41 36 37 32 27 20 14 12 9 7 5 5 10 12 12 11 8 9 10 10
6 25 17 10 13 15 13 10 17 15 17 4 13 15 17 18 15 25 33 32 35 31 27 22 29 36 40 34 24 17 14 11 9 6 4 7 10 10 13 10 7 9 10 9
23 14 15 16 13 16 17 19 20 18 11 7 10 12 17 19 15 24 25 25 22 26 23 23 30 39 38 31 22 16 15 11 8 4 3 7 9 11 12 9 6 9 6 4
17 23 13 23 20 19 19 18 19 16 8 9 4 5 6 8 11 7 15 14 22 23 24 25 35 40 36 26 18 16 13 10 6 4 3 6 9 12 9 7 5 4 1 3
18 18 25 18 29 19 19 13 13 8 8 6 18 4 6 5 10 11 10 16 18 17 21 28 35 39 30 21 18 16 13 8 6 7 5 5 9 10 6 5 3 2 2 4
18 15 18 28 8 18 9 3 4 7 1 9 20 5 11 6 8 6 6 11 9 15 23 29 35 32 24 19 18 16 13 7 6 7 4 6 9 8 7 6 5 4 6 7
7 20 6 12 21 13 11 6 3 3 4 8 8 5 15 11 10 12 10 6 12 18 24 29 34 32 25 21 20 16 13 8 7 8 4 5 8 6 7 8 6 2 5 10
13 10 27 14 20 12 23 17 6 6 4 4 7 7 11 10 13 23 21 11 18 20 23 28 34 29 24 21 20 16 11 9 8 8 4 2 7 6 6 9 6 1 7 11
14 14 3 21 10 19 14 15 13 3 1 2 4 7 9 3 3 3 6 18 22 23 26 30 31 27 23 21 20 15 11 10 10 8 3 1 2 7 7 9 6 3 8 12
2 1 8 16 19 19 9 9 9 4 4 4 5 5 6 3 3 5 7 11 19 23 26 30 31 27 21 20 18 14 10 10 11 8 5 2 1 7 8 8 6 6 9 12
4 2 5 14 17 21 6 16 2 7 5 6 1 7 8 9 9 12 9 20 27 29 30 32 31 26 20 19 17 14 12 13 10 8 6 4 1 5 6 6 3 5 7 10
7 5 12 10 2 18 24 19 20 8 8 2 4 12 4 7 9 9 11 24 27 30 31 32 31 26 23 21 18 15 14 14 11 8 9 5 2 4 4 5 2 4 8 10
10 6 4 4 6 4 15 23 16 7 3 7 6 8 1 4 7 16 16 25 28 30 31 32 31 28 26 24 19 18 16 13 11 9 9 6 2 2 4 5 5 6 10 11
9 5 15 15 6 5 5 17 18 15 10 11 9 6 3 3 7 7 14 26 31 33 34 33 33 30 28 25 21 18 18 14 13 11 11 8 2 4 4 5 9 10 13 15
4 4 6 21 19 6 6 11 20 20 20 15 16 9 7 8 10 15 23 24 27 30 33 34 34 31 29 27 21 17 19 17 15 12 12 8 9 8 8 8 13 15 15 15
6 4 10 7 15 24 19 5 19 20 12 10 8 9 8 7 12 11 22 27 29 33 37 36 34 32 31 29 23 20 21 19 17 13 12 10 14 10 10 11 17 16 14 13
2 4 10 8 9 9 15 23 7 10 9 14 8 9 7 4 10 14 23 31 33 36 39 38 36 33 31 30 26 24 22 20 19 15 13 15 15 10 10 10 14 14 12 10
8 5 4 5 3 8 10 7 15 10 9 10 3 10 13 12 30 34 40 42 35 36 39 38 36 34 30 29 27 24 22 21 20 19 15 17 17 14 14 9 11 11 12 10
12 5 3 3 3 4 3 8 6 3 6 8 8 8 9 19 16 8 32 40 40 37 37 37 33 31 29 29 28 27 26 23 22 22 19 18 18 18 14 12 12 9 7 8
13 12 3 4 3 7 5 18 20 11 3 16 17 14 2 15 9 6 34 37 38 36 33 35 34 33 30 30 30 30 29 27 26 24 21 18 22 20 16 13 11 10 6 5
8 1 5 2 4 3 16 22 25 8 5 21 26 22 18 7 17 37 37 41 39 36 32 33 35 35 32 32 33 32 32 30 25 24 22 19 24 24 20 16 14 11 11 5
2 5 1 1 3 2 26 9 8 6 16 22 28 25 23 25 27 31 33 36 42 41 33 32 35 36 36 34 36 35 33 26 25 27 25 22 23 26 23 19 16 13 10 10
2 3 4 3 3 2 15 4 8 11 15 23 27 32 27 21 25 30 33 37 43 46 38 35 35 37 37 37 37 37 33 29 28 29 26 25 23 25 23 23 21 18 14 12
2 4 2 8 2 8 15 7 17 22 22 28 29 28 26 15 10 28 35 40 43 48 42 39 38 38 39 40 39 35 34 31 30 31 27 27 29 27 27 24 23 22 19 15
4 3 3 5 12 17 11 25 30 29 31 31 36 32 28 24 7 10 33 41 44 48 45 42 41 39 39 38 40 38 36 34 34 31 29 28 30 31 29 29 26 23 21 17
5 3 1 3 16 12 14 26 35 23 28 31 36 37 36 31 23 1 22 38 43 45 48 45 43 40 38 38 40 39 38 37 36 35 34 30 30 34 32 32 31 27 21 18

GFSCGP_850_spd_006.txt.gz
Wind_Speed
12 7 21 23 15 7 6 14 14 2 4 6 9 9 14 23 12 18 28 34 41 43 38 28 25 32 31 29 29 31 29 23 19 14 11 7 5 9 9 12 12 9 9 11
6 28 20 11 14 13 9 12 17 11 3 7 10 13 15 16 17 20 28 37 36 31 25 23 22 26 30 33 35 32 25 20 16 12 9 6 6 8 10 11 10 8 9 11
27 22 12 15 9 13 14 18 17 11 7 6 7 12 11 13 13 17 25 22 23 25 21 19 19 25 30 34 37 29 22 18 14 10 7 5 5 8 9 9 6 7 8 8
17 22 21 13 19 15 19 16 15 12 4 9 5 6 10 9 17 9 21 24 25 21 20 18 21 23 29 36 31 23 20 17 13 9 5 3 5 8 7 7 5 5 5 2
13 18 23 23 25 20 13 7 7 7 7 2 5 5 6 5 9 14 11 26 27 21 18 15 17 22 31 33 26 21 19 15 10 7 5 2 6 7 7 6 5 5 3 2
14 10 19 16 8 13 5 3 4 4 1 9 14 7 5 6 11 6 6 11 14 11 12 14 18 25 32 28 23 20 18 12 8 7 5 2 6 5 6 6 6 5 5 5
5 9 3 7 15 4 7 7 1 3 1 5 6 6 14 10 9 9 12 18 8 11 16 20 26 35 32 27 23 20 16 10 8 7 5 2 5 5 7 8 7 4 2 8
8 5 15 7 10 13 15 10 6 6 3 5 6 8 9 13 16 22 24 18 11 18 19 23 31 35 30 26 22 19 15 9 9 9 5 1 4 6 6 8 5 1 5 9
8 7 3 14 7 17 12 10 12 2 2 1 4 7 8 6 9 6 1 7 16 20 23 26 33 32 28 23 20 17 12 11 8 9 6 2 3 6 6 9 7 3 7 10
3 2 7 13 8 19 9 11 7 7 6 4 5 5 6 2 6 4 5 10 19 21 23 27 33 31 24 19 18 16 12 10 10 8 6 4 1 6 6 7 7 4 8 10
2 3 3 10 13 17 5 7 3 8 5 5 1 6 7 8 9 9 9 17 24 27 27 30 33 28 22 20 19 16 14 12 11 8 7 3 1 5 4 4 2 4 7 11
3 2 4 10 7 21 22 15 8 7 5 4 4 6 3 9 7 7 8 16 19 23 27 30 33 29 24 22 21 17 15 13 10 9 7 4 1 3 2 3 3 3 8 10
8 4 2 5 3 2 22 19 16 5 4 14 8 6 3 5 6 7 11 19 20 23 27 30 32 29 24 23 20 17 15 13 11 9 8 5 1 1 2 3 5 6 8 9
10 3 5 10 6 5 5 15 19 12 5 3 11 1 5 3 7 5 12 19 22 25 28 32 33 29 25 23 20 17 15 14 12 10 9 6 3 2 2 7 8 9 11 13
2 4 4 10 13 7 6 12 19 18 21 13 5 8 7 8 9 7 18 21 24 25 29 34 35 30 26 24 21 17 17 15 13 11 10 7 6 3 5 12 13 15 15 13
3 4 6 4 7 16 13 10 16 23 21 18 3 10 9 3 7 9 22 25 26 29 32 35 34 30 29 25 23 19 19 17 15 13 12 9 9 6 10 14 15 14 13 13
3 4 7 5 7 4 9 18 11 8 12 18 12 24 5 4 8 12 24 29 31 32 35 36 35 32 29 26 25 21 20 19 17 14 14 13 12 10 12 15 15 13 11 10
4 5 2 4 5 5 3 12 9 14 7 8 8 5 7 11 30 29 30 35 34 33 35 35 34 32 28 25 26 21 21 21 19 17 15 17 16 11 12 14 13 12 9 10
8 2 3 2 2 3 6 10 8 5 4 10 9 12 9 22 4 7 29 35 36 36 35 34 33 31 26 27 27 25 23 23 20 20 18 18 17 13 15 12 10 9 8 9
8 11 5 0 2 4 9 16 10 3 4 13 12 12 13 16 4 6 30 33 33 32 31 33 32 33 27 28 29 28 26 26 23 22 20 18 20 17 15 12 10 8 7 8
2 1 4 2 2 1 13 17 2 6 5 19 17 16 15 5 8 25 16 35 35 35 32 32 34 35 30 29 31 32 29 28 24 22 21 19 22 19 16 13 11 10 6 7
1 1 0 3 1 2 20 6 7 5 12 16 20 18 22 25 29 28 20 26 33 35 32 33 35 35 34 31 33 33 33 26 25 23 23 21 22 21 20 15 15 12 7 6
2 2 2 4 2 9 15 3 5 12 18 19 22 27 26 26 27 21 22 19 35 35 36 34 38 37 36 35 34 33 31 29 26 24 24 23 21 22 22 19 17 15 12 8
1 1 0 4 6 13 24 7 15 21 25 28 28 28 26 27 24 18 18 19 30 37 40 37 39 39 39 38 36 30 28 29 29 27 27 25 23 24 24 22 19 17 16 13
1 3 2 2 7 16 8 17 25 30 27 30 28 30 31 26 25 15 12 21 28 38 43 40 38 39 39 39 37 34 30 30 29 29 28 28 26 24 24 24 22 21 18 15
4 4 1 1 3 8 17 25 31 28 29 30 29 32 34 30 28 16 8 21 28 36 44 42 38 37 36 35 36 36 32 32 31 30 31 30 29 28 27 25 25 23 20 17

GFSCGP_850_spd_009.txt.gz
Wind_Speed
24 12 28 30 24 19 20 22 28 21 13 15 18 18 13 21 23 27 27 29 33 36 31 28 20 13 13 19 23 30 32 29 29 24 20 16 12 10 11 12 14 12 11 11
13 29 26 22 23 22 23 24 21 14 10 12 16 20 15 18 26 29 26 28 28 25 26 18 15 12 13 15 24 31 31 31 25 19 15 12 10 10 10 11 11 9 9 11
28 39 18 20 22 24 26 26 24 20 15 15 16 23 20 20 13 21 24 28 31 27 20 12 13 11 14 18 25 32 31 25 20 17 14 10 9 8 8 8 8 7 8 8
23 23 25 26 29 22 26 24 20 19 11 15 3 16 18 20 22 21 28 23 23 17 18 12 11 10 14 21 27 30 27 22 18 15 12 9 6 4 5 6 6 7 5 4
19 21 21 26 24 26 17 13 16 17 17 17 17 11 10 13 21 24 20 24 15 10 9 10 9 10 14 21 31 27 23 19 16 13 11 6 3 3 4 5 5 6 4 2
19 13 26 28 19 21 13 8 10 6 7 12 15 11 13 15 19 16 13 12 4 8 5 8 10 13 19 28 30 26 21 18 15 13 10 5 1 2 4 5 7 6 5 4
17 19 6 15 17 17 20 14 6 7 7 9 14 12 18 15 19 18 18 8 5 6 6 14 19 23 31 34 29 24 20 18 14 12 10 4 0 2 4 6 7 4 4 7
14 12 21 20 18 14 25 20 8 7 6 9 5 9 7 17 19 29 22 13 6 8 12 15 20 28 34 32 27 23 20 16 13 12 9 5 2 3 4 6 3 2 7 9
12 14 14 22 14 21 19 19 15 5 1 5 4 6 10 17 14 11 11 7 9 12 15 19 23 31 32 29 25 22 20 14 13 13 9 6 3 4 5 5 3 6 10 12
7 11 13 20 22 24 18 19 10 9 9 9 6 5 8 6 9 8 8 9 11 15 18 21 28 31 29 25 23 21 16 13 14 12 9 6 2 3 4 4 4 7 10 12
10 7 14 18 21 22 11 18 7 10 6 5 3 5 9 14 8 7 2 10 14 16 19 22 27 29 27 24 23 21 16 14 15 12 10 6 2 2 2 2 3 7 10 11
7 6 6 24 13 18 20 21 19 9 10 10 2 5 1 8 7 7 2 10 16 17 20 23 25 29 27 25 24 19 17 15 14 12 9 7 3 1 1 1 4 7 10 11
8 5 10 8 7 15 25 21 17 6 5 16 10 4 3 4 4 1 4 13 18 20 22 24 26 29 27 26 24 19 17 16 13 11 9 6 3 1 0 2 5 8 11 10
10 4 11 11 9 2 25 24 20 15 9 9 17 12 19 14 6 6 5 12 18 22 25 26 27 27 26 26 23 19 18 16 13 10 9 6 3 1 0 6 8 10 11 11
6 3 6 15 11 8 15 20 24 22 17 11 7 22 19 14 10 4 8 13 17 23 25 27 28 26 27 27 23 20 18 16 14 12 11 7 4 2 5 9 10 12 14 12
6 2 8 9 14 11 8 6 15 25 23 21 16 18 13 15 12 3 10 19 21 23 25 26 28 28 28 28 25 22 21 18 15 13 12 8 5 7 12 12 13 14 13 13
1 4 4 5 5 6 10 14 9 12 20 20 21 26 15 16 14 9 13 23 26 26 28 32 32 32 30 29 26 23 23 19 17 15 13 11 8 13 15 14 13 12 12 12
4 2 3 3 4 14 4 9 3 12 9 10 11 10 11 12 23 22 17 25 28 25 27 30 32 33 29 28 26 23 24 21 18 17 16 16 12 15 15 14 11 10 9 9
11 2 3 2 5 5 4 10 6 1 5 11 9 11 14 17 19 18 12 21 26 34 30 33 34 33 30 30 28 25 25 23 21 19 19 20 16 15 16 14 12 9 9 9
1 8 4 3 4 5 7 13 7 4 5 13 12 11 13 16 10 2 16 9 12 20 29 31 33 34 30 31 30 28 27 27 23 21 20 22 19 16 15 12 10 9 9 9
2 3 8 4 1 3 14 14 15 8 4 16 16 16 14 9 12 29 26 16 9 20 23 30 34 37 33 33 32 31 28 29 26 22 21 21 21 17 15 13 11 8 8 9
1 1 3 3 3 5 18 3 4 5 10 14 16 17 18 19 23 23 21 18 8 21 28 32 35 38 33 33 34 33 31 28 27 23 22 21 22 19 18 15 13 11 8 9
1 3 1 4 3 7 9 4 9 10 12 15 16 20 19 20 21 20 20 16 9 19 28 31 37 39 36 34 34 34 31 30 29 26 24 22 21 21 21 17 17 15 11 9
1 3 1 2 5 10 5 8 13 15 16 17 18 19 20 20 21 20 17 13 10 20 29 34 34 42 41 36 33 31 31 30 31 28 26 24 22 23 22 20 17 16 14 13
3 3 5 2 8 9 3 16 20 22 20 22 21 20 20 22 21 21 18 14 10 18 27 35 40 44 44 39 34 33 32 33 33 30 27 26 25 23 24 23 21 18 16 12
6 4 3 2 9 9 16 19 23 22 24 24 23 26 23 23 24 24 18 14 11 19 25 34 38 39 43 43 37 34 33 34 34 33 31 29 29 27 26 25 23 21 19 15

GFSCGP_850_spd_015.txt.gz
Wind_Speed
29 19 27 44 36 32 30 27 33 32 27 28 31 31 24 23 32 33 36 41 37 34 36 35 29 18 21 17 19 21 25 27 28 25 24 22 19 15 13 12 13 13 12 14
24 31 48 26 31 31 33 31 33 29 28 23 25 28 25 24 25 33 37 38 37 35 38 33 23 14 13 13 16 18 21 26 26 24 22 19 16 11 10 10 12 11 11 13
31 45 26 32 32 32 32 33 28 30 24 21 22 28 28 26 30 37 39 41 40 39 35 29 23 12 9 13 16 19 21 24 25 21 20 17 14 11 10 10 10 12 13 12
30 34 34 32 34 35 33 29 27 25 21 18 21 23 25 18 24 23 28 31 31 29 27 27 18 11 12 13 15 18 21 23 22 24 18 17 12 9 9 8 7 7 10 9
31 31 36 35 42 31 36 25 25 25 21 22 24 17 18 21 22 23 23 30 29 29 27 26 15 14 14 16 18 20 22 23 22 20 15 13 10 8 6 6 8 8 10 11
32 33 29 40 34 29 29 27 25 20 17 20 22 20 22 21 20 20 20 19 25 25 22 10 13 17 17 18 20 22 24 21 19 17 14 12 10 7 6 5 6 11 12 11
30 31 28 30 32 36 27 23 16 16 17 21 18 20 23 20 18 17 16 13 7 11 12 16 19 20 21 22 23 23 23 20 18 15 12 10 7 6 5 4 8 6 9 7
24 26 33 27 30 37 31 28 17 28 12 16 22 18 16 17 10 10 13 15 10 10 14 18 20 22 23 24 24 23 21 20 17 14 12 9 7 4 2 4 3 6 5 7
17 30 28 34 25 26 40 27 32 24 20 14 13 16 15 17 14 10 10 16 15 14 18 20 21 23 24 24 23 22 21 18 16 14 12 9 6 5 6 6 2 3 6 6
17 21 31 27 29 32 33 29 22 21 24 15 14 10 8 2 7 13 10 13 16 17 21 22 23 24 24 23 22 20 19 17 15 13 11 9 7 6 3 2 3 6 8 7
21 4 16 29 33 31 26 23 30 21 18 15 11 9 2 5 2 15 14 16 19 22 23 24 24 24 24 23 21 19 18 16 14 12 10 10 7 6 3 4 5 6 8 7
16 6 12 28 28 30 30 27 31 16 22 17 11 4 4 9 7 5 3 13 19 22 24 25 26 25 24 22 21 19 16 15 14 12 10 8 7 6 5 6 8 5 8 6
8 10 13 8 19 28 32 34 27 27 16 19 9 4 8 9 6 1 3 16 19 23 24 25 25 25 24 22 20 19 16 15 14 12 9 8 6 6 5 7 8 8 8 6
11 14 17 6 13 22 28 33 30 28 17 18 19 12 13 14 11 10 8 14 20 23 24 25 24 23 22 21 20 18 16 16 14 12 9 8 5 6 7 8 7 9 8 7
5 17 25 7 23 23 25 28 24 31 20 16 18 14 14 13 13 8 10 15 20 21 23 24 24 24 22 21 19 17 17 16 15 12 9 7 6 7 7 9 9 9 8 7
9 10 17 17 20 32 23 31 27 23 27 18 12 18 12 4 12 8 10 12 16 19 21 21 23 23 22 21 20 18 17 16 15 13 11 9 8 9 9 9 10 9 10 9
8 6 6 16 20 26 14 19 27 25 24 17 12 6 8 6 7 13 9 6 13 16 18 20 22 22 22 22 20 19 18 17 15 14 12 10 10 11 11 10 10 8 9 9
13 10 4 4 12 10 9 8 24 19 20 16 14 4 11 9 5 6 7 7 7 14 16 19 21 21 20 21 21 19 18 17 16 15 14 12 13 12 12 10 9 8 9 10
10 4 5 4 10 12 4 7 4 21 13 10 4 3 10 7 7 8 5 7 6 11 18 20 21 21 20 21 22 21 19 18 17 16 15 14 14 12 11 10 9 6 4 6
5 5 4 6 9 7 8 6 6 5 11 8 6 6 6 7 9 9 9 8 7 9 18 20 22 22 22 22 22 22 21 20 18 17 17 16 14 12 11 9 7 6 5 4
3 2 7 11 7 6 10 11 5 11 6 6 8 9 7 6 9 13 10 7 6 7 11 18 22 23 23 23 23 23 22 21 20 18 18 16 16 14 12 10 9 8 6 6
3 3 6 5 1 5 18 3 4 7 7 9 8 9 8 8 10 9 8 6 5 5 11 20 23 24 24 25 24 23 23 22 21 20 19 18 17 15 11 10 9 8 8 8
0 4 3 3 2 14 19 17 15 11 10 10 9 8 8 10 10 9 7 5 4 6 14 21 24 25 25 26 25 24 23 23 23 22 21 20 18 15 13 11 10 8 8 7
2 8 3 2 9 6 15 16 13 13 11 11 11 9 11 11 12 11 9 6 4 5 14 21 24 26 26 26 26 24 23 24 24 23 23 21 20 17 15 13 11 9 9 8
5 7 5 0 12 10 16 14 11 12 12 12 12 13 12 12 13 14 11 9 4 4 10 20 24 25 26 26 26 25 25 25 25 24 23 22 21 20 17 15 12 11 10 10
3 4 3 2 5 8 13 13 13 14 14 13 13 12 12 12 13 14 13 12 9 4 6 18 23 25 26 27 27 27 26 27 26 26 25 24 22 22 19 18 16 16 13 16